Погода в Кижинге

Россия / Республика Бурятия     51°50′54″N   109°54′23″E
темп.,
°C
ветер,
м/с
пор.,
м/с
влажн.,
%
обл.,
%
осадки,
мм/ч
давл.,
гПа
погр.,
м
16 апреля, пт
пт1623:00−4зюз22665 0.0 101726
02:00−3з3108157 0.0 1019410
05:00−6з37855 0.0 1022193
08:00−2зсз47555 0.0 1023718
11:00+3зсз563254 0.0 10211727
14:00+6зсз672423 0.0 10191904
17:00+7зсз582648 0.0 10171704
20:00+1з22405 0.0 101821
17 апреля, сб
сб1723:00−1юз33475 0.0 101846
02:00−2ююз234683 0.0 101737
05:00−2ююз22515 0.0 101527
08:00+4ююз253424 0.0 1013299
11:00+12зюз57255 0.0 10081426
14:00+15зюз56215 0.0 10052116
17:00+15з46205 0.0 10032464
20:00+7зюз11373 0.0 100510
18 апреля, вс
вс1823:00+5ююз22455 0.0 100613
02:00+3ююз2249100 0.0 100617
05:00+2з4866100 0.0 1009359
08:00+3зсз576091 0.0 1013697
11:00+6зсз573417 0.3 10141527
14:00+8сз68265 0.3 10132098
17:00+6ссз78235 0.0 10162300
20:00−1ссз49320 0.0 1021386
19 апреля, пн
пн1923:00−4з11445 0.0 102410
02:00−6ююв11513 0.0 102510
05:00−7вюв11565 0.0 102512
08:00−2всв23295 0.0 1023417
11:00+6юв24165 0.0 10171140
14:00+12зюз261928 0.0 10101708
17:00+15юз382313 0.0 10052631
20:00+8ю22430 0.0 100621
20 апреля, вт
вт2023:00+6ююв34545 0.0 100556
02:00+5юз225743 0.0 100635
05:00+1з377039 0.0 1012206
08:00+3з245517 0.0 1014425
11:00+7сз453099 0.0 10141262
14:00+7с6335100 0.0 10141571
17:00+5ссз3249100 0.0 1014974
20:00+3зсз1166100 0.0 101511